Location: El Álamo
(40.2307°N, 3.9945°W)
Time: 04:18:22
(UTC+00:00)

Cosmos 1151 Rocket - Pass Details

Date: 19 May 2025
Orbit: 586 x 606 km, 82.5° (Epoch: 23 June)

Event Time Altitude Azimuth Distance (km) Brightness Sun altitude
Exits shadow 23:56:15 36° 4° (N) 941 4.4 -29.7°
Drops below altitude 10° 23:58:48 10° 7° (N) 1,918 6.5 -29.7°
Sets 00:01:01 0° 8° (N) 2,822 7.6 -29.7°
